Wind_Speed
14 14 13 14 14 14 14 15 15 15 15 15 15 16 16 16 16 16 16 16 17 17 17 16 16 16 17 16 16 17 17 17 17 17 17 17 18 18
14 14 15 15 15 16 16 17 17 17 17 17 18 18 19 19 19 18 18 18 18 18 18 18 18 18 18 17 17 17 18 18 19 19 18 18 19 19
16 16 17 17 17 17 18 19 19 19 19 19 19 20 20 21 21 21 21 21 20 20 20 20 19 19 20 19 19 19 19 19 19 19 19 19 20 20
18 18 19 19 19 19 20 20 20 21 22 21 21 22 22 22 22 23 23 22 22 22 21 21 21 21 21 21 21 21 20 20 20 21 21 21 21 21
19 20 20 20 20 20 21 21 22 22 23 24 23 23 23 23 23 24 24 24 24 24 23 22 22 22 22 21 21 21 21 21 21 21 22 22 22 22
20 20 21 21 22 22 23 23 23 24 25 25 26 25 25 25 25 26 25 25 25 25 25 24 24 23 23 22 22 22 22 22 22 23 22 22 23 23
22 23 23 22 23 23 24 24 24 25 26 27 27 26 25 26 26 26 25 24 24 25 25 25 25 25 24 24 24 23 22 22 23 23 22 23 23 24
24 24 24 24 24 25 25 26 26 27 28 28 28 27 26 26 26 26 25 25 25 25 25 25 26 26 26 25 25 25 25 24 24 24 24 24 24 25
26 27 26 25 25 26 27 27 28 29 29 29 28 28 28 27 27 27 27 26 26 26 26 26 26 26 26 26 26 26 26 26 27 26 26 26 26 26
27 27 27 27 28 28 29 29 29 30 30 30 31 30 29 29 29 28 28 28 28 28 28 27 27 27 27 27 27 27 28 28 28 28 28 28 27 27
29 29 29 29 29 30 31 31 31 31 32 32 31 31 31 30 30 29 29 30 29 29 29 29 29 29 29 29 29 29 29 30 30 30 30 29 29 30
30 31 31 31 31 31 31 32 32 32 32 32 32 31 32 31 31 31 31 31 31 31 31 31 31 31 31 31 31 32 31 31 31 32 32 32 32 32
31 31 31 32 32 33 33 33 32 33 33 32 32 31 31 31 32 32 31 31 31 31 31 32 32 33 33 32 33 34 34 33 33 34 34 34 34 35
32 32 32 32 33 34 34 33 33 33 33 32 31 31 31 31 32 32 32 32 32 32 33 34 34 34 35 34 34 35 36 35 35 36 36 36 36 36
32 33 33 34 34 34 33 33 33 33 33 33 33 33 32 33 33 34 34 34 34 34 34 35 35 35 36 37 37 37 37 37 37 37 37 37 37 36
32 33 34 34 34 34 33 34 34 34 33 34 34 33 34 34 34 35 36 36 36 35 36 36 36 37 37 38 38 37 38 38 38 38 38 38 36 36
34 34 35 35 35 35 35 35 35 35 35 35 35 35 35 36 36 36 37 37 37 37 36 37 37 37 38 38 38 38 38 38 38 38 37 36 36 36
36 36 36 37 37 37 37 36 36 37 37 36 36 37 37 37 37 37 38 38 38 37 37 37 37 38 38 37 37 38 38 38 37 37 36 36 35 35
37 37 37 37 37 38 38 37 37 37 37 37 37 37 38 38 38 38 38 38 38 37 37 37 38 38 38 38 38 38 38 37 36 35 35 35 34 34
38 37 37 38 38 38 38 37 37 37 37 37 38 38 38 37 37 37 37 37 38 37 37 37 37 38 38 38 38 37 36 36 36 36 35 34 34 33
38 39 39 39 39 39 38 38 38 38 38 38 38 38 38 38 37 37 37 37 38 37 37 37 37 38 38 38 37 36 36 36 36 36 35 35 34 33
38 39 38 38 39 39 39 39 39 39 39 39 38 38 38 37 37 37 37 37 37 38 38 38 38 38 38 38 37 37 37 36 37 36 35 34 33 32
38 38 38 38 39 39 39 39 39 38 38 39 38 37 36 36 36 37 37 37 37 37 37 37 37 38 38 38 37 37 37 37 36 36 35 34 33 33
Wind_Direction
307 307 309 309 310 308 307 307 308 310 312 309 309 311 311 310 311 316 316 315 316 315 315 312 309 307 305 304 302 293 291 291 291 288 285 283 280 279
306 306 304 303 303 303 303 303 304 305 307 307 305 306 306 305 306 307 309 311 311 311 310 309 307 304 302 299 299 299 294 292 290 288 284 281 279 279
303 302 302 301 300 300 299 298 300 302 302 304 302 301 302 301 302 302 303 305 307 309 308 306 303 303 300 298 296 296 295 292 290 289 287 284 280 278
303 302 301 300 299 300 300 299 299 300 301 302 303 300 300 299 298 298 300 301 302 304 304 303 302 301 300 298 296 295 294 292 290 289 286 283 281 279
303 302 300 299 299 300 301 300 301 300 300 301 302 301 298 298 297 297 298 299 298 298 298 298 299 300 298 297 295 293 293 292 290 289 287 282 280 281
302 302 300 298 297 298 299 300 301 300 300 300 300 301 298 296 295 295 295 297 297 297 296 296 297 297 296 294 293 294 293 293 291 290 288 284 280 279
300 300 299 297 295 296 298 299 299 299 300 301 300 301 299 297 296 296 297 298 299 299 297 296 295 296 295 292 291 290 291 291 292 291 289 288 285 282
298 298 298 296 294 294 295 296 297 297 298 299 299 299 298 297 295 296 298 298 298 299 299 298 296 297 295 292 291 290 290 290 290 290 290 288 286 285
297 299 300 299 297 295 294 295 295 296 297 297 298 298 297 297 296 295 296 297 297 298 297 297 297 297 295 294 291 290 290 290 289 287 288 287 286 284
298 300 298 297 297 295 295 295 295 296 297 298 297 297 297 296 295 294 292 293 294 294 295 295 295 296 294 293 292 290 289 289 289 288 288 287 285 284
299 300 298 297 297 296 296 295 294 295 295 296 296 295 295 294 293 292 291 291 290 291 291 291 292 293 293 292 291 290 289 288 288 288 287 287 286 285
297 296 297 298 297 298 297 296 296 295 295 295 294 293 293 293 293 292 291 290 289 288 289 289 290 291 291 291 291 291 291 290 289 287 287 286 286 286
297 297 296 296 296 297 297 297 296 296 295 293 293 292 292 293 293 292 291 291 290 289 289 289 290 290 289 289 290 290 290 290 288 286 285 286 287 287
297 296 295 296 296 297 298 298 297 296 295 294 292 292 291 291 291 291 290 289 289 289 290 290 290 289 289 288 288 288 288 288 287 286 286 286 287 286
297 297 297 297 297 297 298 298 297 296 295 294 293 291 290 290 291 291 290 290 291 291 291 291 291 290 289 289 289 289 288 287 287 288 287 286 286 285
298 298 298 298 297 296 296 296 295 295 295 294 294 291 290 290 290 290 290 290 290 291 291 291 291 290 290 289 289 289 289 289 288 288 288 286 286 285
297 297 296 296 296 296 296 295 295 295 295 294 292 292 291 290 289 289 290 290 290 290 290 289 289 290 290 290 289 289 289 289 289 290 289 287 286 285
296 296 296 295 295 295 295 294 294 294 295 293 292 292 292 290 289 289 290 290 290 290 289 288 288 289 289 290 291 291 289 289 289 289 289 288 286 283
295 296 296 296 295 294 294 294 294 295 295 295 293 292 292 291 290 291 290 290 289 289 288 289 288 289 290 290 290 291 291 290 291 290 288 287 284 282
294 294 295 295 295 295 294 294 294 294 294 295 294 294 293 292 291 291 291 290 290 289 287 288 289 289 290 290 291 291 291 291 290 289 289 286 284 282
293 295 296 296 296 295 294 293 293 293 293 294 293 292 292 291 291 290 290 290 290 289 289 289 289 289 289 289 289 291 290 290 290 289 288 286 284 281
294 294 294 296 296 295 294 294 293 292 293 294 294 293 292 291 291 290 290 289 289 289 289 289 289 289 289 289 289 289 289 288 288 289 288 287 285 282
294 294 294 295 296 296 296 295 294 293 293 293 293 293 293 292 291 290 290 289 289 289 290 290 290 289 290 290 288 288 288 288 288 289 288 286 283 281
Height
5884 5882 5881 5880 5879 5878 5877 5875 5874 5873 5872 5871 5869 5868 5867 5866 5865 5863 5862 5859 5858 5856 5854 5852 5851 5849 5848 5847 5845 5844 5843 5842 5842 5841 5840 5840 5839 5839
5880 5879 5878 5877 5876 5875 5873 5872 5870 5869 5868 5867 5866 5864 5863 5862 5860 5859 5858 5856 5854 5852 5850 5848 5846 5845 5844 5842 5841 5840 5839 5838 5837 5836 5835 5834 5834 5834
5877 5875 5874 5873 5872 5871 5869 5868 5866 5865 5864 5863 5861 5860 5858 5857 5856 5855 5853 5851 5849 5847 5846 5844 5842 5840 5839 5837 5836 5835 5834 5833 5831 5830 5829 5829 5828 5828
5873 5871 5870 5869 5867 5866 5865 5863 5862 5861 5859 5858 5857 5855 5854 5852 5851 5849 5848 5846 5844 5842 5840 5839 5837 5835 5834 5832 5831 5829 5828 5827 5826 5825 5824 5823 5822 5821
5868 5867 5865 5864 5863 5861 5860 5858 5857 5856 5854 5853 5851 5850 5848 5846 5845 5843 5841 5840 5838 5836 5834 5833 5831 5829 5828 5826 5825 5823 5822 5821 5820 5819 5817 5816 5816 5815
5864 5862 5860 5859 5857 5856 5855 5853 5852 5850 5848 5847 5845 5844 5842 5840 5838 5836 5835 5833 5831 5829 5828 5826 5825 5823 5822 5820 5819 5817 5816 5814 5813 5812 5811 5810 5809 5808
5859 5857 5855 5853 5852 5850 5849 5847 5846 5844 5842 5840 5839 5837 5835 5833 5831 5829 5828 5826 5824 5822 5820 5819 5818 5817 5815 5813 5812 5810 5809 5808 5807 5805 5804 5803 5802 5801
5853 5851 5849 5847 5846 5844 5843 5841 5839 5837 5836 5834 5832 5830 5828 5826 5824 5822 5820 5819 5818 5816 5814 5812 5810 5809 5807 5806 5804 5803 5802 5801 5799 5798 5797 5796 5795 5794
5846 5844 5843 5841 5839 5838 5836 5834 5832 5830 5828 5826 5824 5822 5820 5818 5816 5815 5812 5811 5810 5808 5806 5804 5803 5801 5799 5798 5796 5795 5794 5793 5791 5790 5789 5788 5786 5785
5840 5838 5836 5834 5832 5830 5828 5826 5824 5822 5820 5818 5816 5814 5812 5810 5808 5806 5805 5803 5802 5800 5798 5796 5794 5793 5791 5790 5788 5787 5785 5784 5783 5781 5780 5779 5777 5776
5833 5831 5829 5827 5824 5822 5820 5818 5816 5813 5811 5809 5807 5805 5803 5801 5800 5798 5796 5794 5793 5791 5789 5787 5786 5784 5782 5781 5779 5778 5777 5775 5774 5772 5771 5769 5768 5767
5826 5824 5822 5819 5816 5814 5812 5809 5807 5805 5803 5801 5798 5796 5794 5792 5790 5789 5787 5785 5783 5782 5780 5778 5776 5775 5774 5772 5770 5768 5767 5765 5764 5762 5761 5759 5758 5757
5818 5815 5813 5811 5808 5806 5803 5801 5798 5796 5794 5792 5790 5788 5786 5783 5781 5779 5777 5775 5773 5772 5770 5768 5766 5765 5763 5762 5760 5758 5756 5755 5753 5752 5750 5749 5747 5745
5809 5807 5805 5802 5800 5797 5794 5792 5789 5787 5784 5782 5781 5779 5777 5775 5772 5770 5768 5766 5763 5762 5760 5757 5756 5754 5752 5751 5750 5748 5746 5744 5742 5741 5739 5737 5735 5733
5801 5798 5796 5794 5791 5788 5785 5783 5780 5777 5775 5773 5771 5769 5767 5764 5762 5760 5757 5755 5754 5752 5749 5747 5745 5743 5741 5740 5738 5737 5735 5733 5730 5729 5727 5725 5723 5721
5791 5789 5787 5784 5781 5779 5776 5773 5771 5768 5765 5763 5760 5758 5756 5754 5752 5750 5748 5745 5743 5741 5739 5736 5734 5732 5730 5728 5726 5725 5723 5721 5719 5717 5715 5713 5711 5709
5783 5780 5777 5775 5772 5769 5766 5764 5761 5758 5755 5752 5750 5748 5745 5743 5741 5738 5736 5734 5732 5730 5728 5726 5723 5720 5718 5716 5714 5713 5711 5709 5707 5704 5702 5700 5699 5697
5773 5770 5767 5764 5761 5759 5756 5753 5750 5747 5744 5742 5739 5737 5734 5732 5729 5727 5724 5722 5720 5718 5716 5713 5711 5709 5707 5705 5703 5700 5698 5696 5694 5692 5690 5688 5687 5685
5762 5760 5757 5753 5750 5747 5745 5742 5740 5737 5734 5731 5728 5725 5723 5720 5718 5715 5713 5710 5708 5706 5704 5701 5699 5697 5695 5693 5691 5688 5686 5684 5682 5680 5678 5676 5675 5673
5751 5748 5745 5743 5740 5737 5734 5731 5728 5726 5723 5720 5717 5714 5711 5709 5706 5703 5701 5698 5696 5694 5692 5689 5687 5685 5682 5681 5679 5676 5674 5672 5670 5668 5666 5664 5663 5662
5740 5737 5734 5731 5728 5725 5722 5720 5717 5714 5711 5708 5705 5702 5699 5696 5694 5691 5689 5686 5684 5681 5679 5678 5675 5673 5670 5668 5667 5665 5663 5660 5658 5656 5654 5653 5651 5650
5729 5726 5723 5720 5717 5714 5711 5708 5705 5702 5699 5696 5692 5689 5686 5684 5681 5679 5676 5674 5672 5669 5667 5666 5663 5660 5658 5656 5654 5653 5651 5649 5646 5644 5643 5641 5640 5638
5718 5715 5711 5708 5705 5702 5699 5696 5693 5690 5687 5684 5681 5677 5674 5672 5669 5667 5664 5662 5659 5657 5655 5653 5651 5648 5646 5644 5642 5640 5639 5637 5635 5633 5632 5630 5628 5627